[[{"header":{"parameterUnit":"m.s-1","parameterCategory":1,"la1":30.2991,"la2":30.254,"lo1":-89.0895,"lo2":-89.0444,"dy":0.0017,"dx":0.0017,"nx":28,"ny":28,"refTime":"2024-02-17T09:00:00:Z","depth":0,"parameterNumber":2,"parameterNumberName":"U-component_of_WINDS"},"data":[0,0,0,0,0,0,0,0,0,0,0,0,0,0,0,0,0,0,0,0,0,0,0,0,0,0,0,0,0,0,0,0,0,0,0,0,0,0,0,0,0,0,0,0,0,0,0,0,0,0,0,0,0,0,0,0,0,0,-0.514,-0.5141,0,-0.5244,-0.5245,-0.5246,-0.5258,-0.5257,-0.5256,-0.5255,-0.5366,-0.537,-0.5374,0,0,0,0,0,0,0,0,0,0,0,0,0,-0.4956,-0.4959,-0.514,-0.5141,-0.5142,-0.5244,-0.5245,-0.5247,-0.5258,-0.5257,-0.5256,-0.5255,-0.5365,-0.5369,-0.5374,0,0,0,0,0,0,0,0,0,0,0,0,0,-0.5045,-0.496,-0.514,-0.516,-0.5163,-0.5243,-0.5245,-0.5247,-0.5259,-0.5257,-0.5255,-0.5254,-0.5363,-0.5369,-0.5375,-0.5442,0,0,-0.5393,-0.5395,0,0,0,0,0,0,0,0,-0.504,-0.5052,-0.5156,-0.5159,-0.5163,-0.5236,-0.5221,-0.5313,-0.5259,-0.5223,-0.5255,-0.5253,-0.5324,-0.5333,-0.5356,-0.5447,-0.5452,-0.5393,-0.5397,-0.5399,-0.5401,0,0,0,0,0,0,0,-0.5034,-0.5048,-0.5181,-0.5158,-0.5162,-0.5166,-0.5177,-0.5238,-0.5281,-0.5226,-0.5227,-0.5239,-0.5326,-0.5351,-0.5359,-0.5454,-0.5393,-0.5398,-0.5402,-0.5404,-0.5607,-0.5609,0,0,0,0,0,0,-0.5023,-0.5042,-0.5178,-0.5184,-0.5096,-0.517,-0.5183,-0.5214,-0.528,-0.5289,-0.524,-0.5239,-0.5341,-0.5352,-0.5363,-0.5448,-0.5399,-0.5405,-0.5408,-0.5605,-0.5607,-0.5609,0,0,0,0,0,0,-0.5019,-0.5035,-0.5174,-0.5114,-0.5132,-0.5175,-0.5211,-0.5217,-0.5242,-0.5291,-0.5299,-0.5257,-0.5341,-0.5355,-0.5422,-0.5452,-0.5407,-0.5413,-0.5603,-0.5606,-0.5608,-0.5617,0,0,0,0,0,0,-0.5014,-0.5034,-0.5059,-0.5114,-0.5135,-0.523,-0.5212,-0.522,-0.5252,-0.5251,-0.531,-0.5318,-0.534,-0.5414,-0.5428,-0.5459,-0.5417,-0.56,-0.5604,-0.5607,-0.5614,-0.562,-0.5624,0,0,0,0,0,-0.5007,-0.5058,-0.506,-0.5077,-0.5167,-0.5232,-0.5244,-0.5268,-0.5254,-0.5281,-0.5312,-0.5316,-0.5446,-0.542,-0.5437,-0.547,-0.5599,-0.5603,-0.5607,-0.5612,-0.5619,-0.5624,0,0,0,0,0,0,-0.5007,-0.5066,-0.5069,-0.5139,-0.518,-0.5234,-0.5268,-0.5274,-0.5321,-0.5319,-0.5348,-0.5361,-0.5427,-0.5455,-0.5426,-0.5539,-0.5521,-0.5529,-0.5519,-0.5526,-0.5531,-0.5523,-0.5422,0,0,0,0,0,-0.5015,-0.5061,-0.511,-0.5167,-0.5188,-0.5224,-0.5253,-0.5268,-0.5312,-0.533,-0.5367,-0.5411,-0.5462,-0.5495,-0.5545,-0.5618,-0.5631,-0.5649,-0.5653,-0.5657,-0.5664,-0.5706,-0.5715,-0.5623,-0.5623,-0.5623,0,0,-0.5032,-0.507,-0.5097,-0.5168,-0.5202,-0.5251,-0.5239,-0.5291,-0.5328,-0.5339,-0.5405,-0.5433,-0.5485,-0.5555,-0.5589,-0.5581,-0.5692,-0.5663,-0.5665,-0.567,-0.5711,-0.572,-0.5728,-0.5626,-0.5625,-0.5625,0,0,-0.5088,-0.5121,-0.5172,-0.5206,-0.5257,-0.528,-0.5293,-0.5345,-0.5364,-0.5431,-0.544,-0.5485,-0.5571,-0.5608,-0.5638,-0.5707,-0.5713,-0.5723,-0.575,-0.579,-0.5797,-0.5804,-0.583,-0.5839,-0.5729,-0.5729,-0.5729,0,-0.5104,-0.5176,-0.5198,-0.525,-0.5281,-0.5292,-0.5345,-0.5377,-0.5442,-0.5464,-0.5454,-0.5563,-0.5598,-0.5678,-0.5695,-0.5718,-0.5734,-0.5717,-0.5794,-0.5801,-0.5808,-0.5833,-0.5843,-0.573,-0.573,-0.573,-0.573,0,-0.5193,-0.5244,-0.5279,-0.534,-0.5375,-0.5428,-0.5459,-0.5492,-0.5503,-0.5528,-0.5596,-0.5639,-0.5697,-0.5717,-0.5729,-0.5799,-0.5793,-0.5788,-0.577,-0.5817,-0.5841,-0.5851,-0.5731,-0.5731,-0.5731,-0.573,0,0,-0.5254,-0.5326,-0.5339,-0.5367,-0.5423,-0.5463,-0.5516,-0.5572,-0.56,-0.5644,-0.5691,-0.5763,-0.5759,-0.5793,-0.5809,-0.5844,-0.5898,-0.5835,-0.5837,-0.5847,-0.598,-0.5984,-0.5995,-0.5901,-0.5903,-0.5905,-0.5976,0,-0.5318,-0.5412,-0.5433,-0.5514,-0.5561,-0.5571,-0.5617,-0.5658,-0.5683,-0.5727,-0.5755,-0.5807,-0.5797,-0.5817,-0.5852,-0.5884,-0.5926,-0.5879,-0.5947,-0.5949,-0.5935,-0.6008,-0.6013,-0.6078,-0.5985,-0.5987,-0.5988,0,-0.5406,-0.5451,-0.5536,-0.5586,-0.5607,-0.5648,-0.5701,-0.5743,-0.579,-0.5805,-0.5842,-0.5855,-0.5912,-0.589,-0.5969,-0.5937,-0.5966,-0.5986,-0.5989,-0.5998,-0.5973,-0.602,-0.6099,-0.6109,-0.6003,-0.6002,-0.6001,0,-0.5444,-0.5525,-0.5587,-0.561,-0.567,-0.5699,-0.5726,-0.577,-0.5802,-0.5849,-0.587,-0.5923,-0.5953,-0.5994,-0.6021,-0.6002,-0.6099,-0.6079,-0.6116,-0.6115,-0.6137,-0.6136,-0.6223,-0.6153,-0.6152,-0.6152,-0.6152,0,-0.5514,-0.5566,-0.5605,-0.5643,-0.5702,-0.5726,-0.5784,-0.5811,-0.585,-0.5895,-0.5907,-0.5949,-0.5981,-0.6027,-0.6049,-0.6112,-0.6125,-0.6141,-0.6146,-0.6141,-0.6139,-0.6161,-0.6158,-0.6155,-0.6154,-0.6154,-0.6153,0,-0.5567,-0.5594,-0.5663,-0.5713,-0.5727,-0.5768,-0.5812,-0.5851,-0.5875,-0.5931,-0.5946,-0.5985,-0.6041,-0.6071,-0.6141,-0.6155,-0.6227,-0.6229,-0.6211,-0.6214,-0.6249,-0.6246,-0.6355,-0.6372,-0.6288,-0.6289,-0.629,0,-0.5611,-0.5651,-0.5705,-0.5735,-0.5762,-0.581,-0.5843,-0.5868,-0.5902,-0.5957,-0.5989,-0.6045,-0.6091,-0.618,-0.6215,-0.6269,-0.6274,-0.6308,-0.6282,-0.6276,-0.6276,-0.6274,-0.6279,-0.6314,-0.6314,-0.6315,-0.6316,0,-0.5687,-0.5698,-0.5744,-0.5795,-0.5833,-0.5874,-0.5916,-0.594,-0.5972,-0.6009,-0.6065,-0.6101,-0.6172,-0.6228,-0.6284,-0.6313,-0.6321,-0.6323,-0.6335,-0.6331,-0.6319,-0.6327,-0.6225,-0.6321,-0.6321,-0.632,-0.632,-0.632,-0.5738,-0.5774,-0.5818,-0.5869,-0.5902,-0.594,-0.5978,-0.6007,-0.6054,-0.6113,-0.6125,-0.6184,-0.623,-0.6307,-0.6337,-0.6385,-0.6379,-0.6395,-0.6399,-0.6404,-0.6406,-0.631,-0.6395,-0.6395,-0.6395,-0.6395,-0.6395,0,-0.5815,-0.5844,-0.589,-0.5947,-0.5987,-0.5988,-0.6033,-0.6068,-0.6119,-0.6161,-0.6205,-0.6271,-0.6325,-0.6364,-0.6419,-0.6451,-0.6455,-0.6465,-0.6464,-0.647,-0.6408,-0.6393,-0.646,-0.646,-0.646,-0.646,-0.646,-0.646,-0.5861,-0.5923,-0.5939,-0.6018,-0.6047,-0.6104,-0.613,-0.6166,-0.6199,-0.6271,-0.6315,-0.6339,-0.6381,-0.6439,-0.6489,-0.65,-0.652,-0.6529,-0.654,-0.6481,-0.6475,-0.6468,-0.6454,-0.6533,-0.6533,-0.6599,-0.66,-0.6601]},{"header":{"parameterUnit":"m.s-1","parameterCategory":1,"la1":30.2991,"la2":30.254,"lo1":-89.0895,"lo2":-89.0444,"dy":0.0017,"dx":0.0017,"nx":28,"ny":28,"refTime":"2024-02-17T09:00:00:Z","depth":0,"parameterNumber":3,"parameterNumberName":"V-component_of_WINDS"},"data":[0,0,0,0,0,0,0,0,0,0,0,0,0,0,0,0,0,0,0,0,0,0,0,0,0,0,0,0,0,0,0,0,0,0,0,0,0,0,0,0,0,0,0,0,0,0,0,0,0,0,0,0,0,0,0,0,0,0,-8.3139,-8.314,0,-8.3235,-8.3236,-8.3237,-8.3164,-8.316,-8.3157,-8.3154,-8.3246,-8.3251,-8.3257,0,0,0,0,0,0,0,0,0,0,0,0,0,-8.2884,-8.2889,-8.3138,-8.314,-8.3141,-8.3235,-8.3236,-8.3237,-8.3164,-8.316,-8.3156,-8.3153,-8.3244,-8.3251,-8.3257,0,0,0,0,0,0,0,0,0,0,0,0,0,-8.2989,-8.2891,-8.3138,-8.3116,-8.3115,-8.3235,-8.3236,-8.3238,-8.3165,-8.316,-8.3155,-8.3151,-8.3242,-8.325,-8.3258,-8.3403,0,0,-8.3283,-8.3286,0,0,0,0,0,0,0,0,-8.2983,-8.2998,-8.3118,-8.3118,-8.3117,-8.3183,-8.318,-8.3293,-8.3166,-8.3146,-8.3154,-8.3149,-8.3228,-8.3237,-8.3265,-8.3407,-8.3411,-8.3283,-8.3288,-8.3292,-8.3294,0,0,0,0,0,0,0,-8.2976,-8.2994,-8.3176,-8.312,-8.3119,-8.3099,-8.3108,-8.3201,-8.3212,-8.3147,-8.3142,-8.3155,-8.3227,-8.3258,-8.3267,-8.3412,-8.3283,-8.329,-8.3295,-8.3298,-8.3678,-8.3683,0,0,0,0,0,0,-8.2972,-8.2988,-8.3173,-8.3179,-8.3037,-8.3107,-8.3118,-8.3166,-8.3211,-8.3213,-8.3159,-8.3151,-8.3246,-8.3258,-8.327,-8.3443,-8.3292,-8.3299,-8.3304,-8.3673,-8.3679,-8.3685,0,0,0,0,0,0,-8.2966,-8.2989,-8.3169,-8.3082,-8.3104,-8.3117,-8.3171,-8.3171,-8.3201,-8.322,-8.3221,-8.3189,-8.3243,-8.3259,-8.3371,-8.3445,-8.3303,-8.331,-8.3666,-8.3674,-8.3682,-8.379,0,0,0,0,0,0,-8.2959,-8.2988,-8.3044,-8.3084,-8.3109,-8.3271,-8.3176,-8.3176,-8.3216,-8.3207,-8.3248,-8.3251,-8.3241,-8.3359,-8.3379,-8.3454,-8.3317,-8.366,-8.367,-8.3679,-8.378,-8.3801,-8.3819,0,0,0,0,0,-8.2951,-8.3069,-8.3048,-8.307,-8.3181,-8.3276,-8.3289,-8.3278,-8.3223,-8.3279,-8.3291,-8.3249,-8.3434,-8.3371,-8.3393,-8.3471,-8.3655,-8.3667,-8.3678,-8.3771,-8.3797,-8.3818,0,0,0,0,0,0,-8.3034,-8.3074,-8.305,-8.3186,-8.3229,-8.3263,-8.3334,-8.3305,-8.3361,-8.335,-8.3331,-8.334,-8.3459,-8.3476,-8.3406,-8.3614,-8.3535,-8.3552,-8.3599,-8.3623,-8.3642,-8.3635,-8.3323,0,0,0,0,0,-8.3069,-8.3146,-8.3175,-8.3292,-8.3315,-8.3321,-8.3362,-8.3349,-8.3391,-8.3408,-8.3428,-8.3468,-8.3535,-8.358,-8.3642,-8.3782,-8.379,-8.3846,-8.3866,-8.3881,-8.3896,-8.3971,-8.3997,-8.3723,-8.3723,-8.3723,0,0,-8.3141,-8.3172,-8.3221,-8.3309,-8.3341,-8.3418,-8.3336,-8.3421,-8.3478,-8.342,-8.3528,-8.3544,-8.3588,-8.3715,-8.3772,-8.3733,-8.3973,-8.3896,-8.3909,-8.3915,-8.3986,-8.4012,-8.4035,-8.3731,-8.373,-8.3728,0,0,-8.3312,-8.3343,-8.3444,-8.3478,-8.3528,-8.3531,-8.3556,-8.3596,-8.3605,-8.3714,-8.3672,-8.3738,-8.3854,-8.3887,-8.3919,-8.4103,-8.4067,-8.4124,-8.4225,-8.4298,-8.432,-8.4339,-8.4405,-8.4429,-8.4138,-8.4139,-8.4139,0,-8.3394,-8.3512,-8.3499,-8.3589,-8.3629,-8.3582,-8.3684,-8.3716,-8.3782,-8.381,-8.3766,-8.3912,-8.3937,-8.4072,-8.4117,-8.4144,-8.4171,-8.4119,-8.4318,-8.4337,-8.4354,-8.4417,-8.4442,-8.4145,-8.4145,-8.4144,-8.4143,0,-8.361,-8.3693,-8.3768,-8.3837,-8.3885,-8.398,-8.398,-8.403,-8.4013,-8.4021,-8.4131,-8.4161,-8.423,-8.426,-8.4244,-8.4393,-8.4367,-8.4321,-8.4242,-8.4388,-8.4446,-8.447,-8.4155,-8.4153,-8.4151,-8.4149,0,0,-8.3836,-8.3898,-8.3926,-8.3957,-8.4009,-8.4071,-8.4163,-8.4233,-8.4276,-8.4323,-8.4399,-8.4499,-8.4457,-8.4494,-8.448,-8.4545,-8.4689,-8.4491,-8.4491,-8.4527,-8.4855,-8.489,-8.4918,-8.4666,-8.467,-8.4674,-8.4851,0,-8.401,-8.4174,-8.4166,-8.4318,-8.4394,-8.4351,-8.4431,-8.447,-8.448,-8.4543,-8.4552,-8.4624,-8.4563,-8.4585,-8.4647,-8.4659,-8.4755,-8.4646,-8.4735,-8.4738,-8.4726,-8.4948,-8.4985,-8.5151,-8.4874,-8.4878,-8.4881,0,-8.4234,-8.4293,-8.4454,-8.4496,-8.4527,-8.4599,-8.4663,-8.4725,-8.4768,-8.477,-8.4812,-8.4788,-8.4879,-8.4798,-8.4922,-8.4848,-8.4884,-8.4895,-8.4901,-8.4909,-8.4818,-8.4962,-8.5204,-8.5229,-8.4916,-8.4914,-8.4911,0,-8.4384,-8.4502,-8.4614,-8.4642,-8.4693,-8.4745,-8.4768,-8.4807,-8.4849,-8.4904,-8.4931,-8.4994,-8.5029,-8.5077,-8.507,-8.5012,-8.5197,-8.5115,-8.5201,-8.5201,-8.5242,-8.5239,-8.5493,-8.5265,-8.5264,-8.5264,-8.5263,0,-8.4579,-8.4679,-8.4682,-8.4751,-8.4862,-8.4851,-8.496,-8.4976,-8.5012,-8.5081,-8.5047,-8.5112,-8.51,-8.5165,-8.5159,-8.5263,-8.5279,-8.5282,-8.528,-8.5286,-8.5286,-8.5309,-8.5297,-8.527,-8.5269,-8.5267,-8.5266,0,-8.4764,-8.4771,-8.489,-8.493,-8.4942,-8.5022,-8.5054,-8.5118,-8.5125,-8.5214,-8.5234,-8.5245,-8.5319,-8.5318,-8.5402,-8.5398,-8.5526,-8.551,-8.5513,-8.551,-8.5595,-8.5587,-8.5873,-8.591,-8.5657,-8.566,-8.5662,0,-8.4889,-8.4966,-8.5014,-8.506,-8.5088,-8.5161,-8.5205,-8.5197,-8.5243,-8.5299,-8.5356,-8.5428,-8.5486,-8.5607,-8.562,-8.5685,-8.567,-8.5765,-8.5679,-8.5683,-8.5671,-8.5667,-8.5675,-8.5782,-8.5785,-8.5787,-8.5789,0,-8.5109,-8.5109,-8.5175,-8.5244,-8.5298,-8.535,-8.5398,-8.5437,-8.5433,-8.5487,-8.5565,-8.561,-8.5697,-8.5769,-8.5831,-8.5851,-8.582,-8.5817,-8.584,-8.5847,-8.5846,-8.5848,-8.5559,-8.581,-8.5808,-8.5806,-8.5805,-8.5804,-8.5268,-8.5335,-8.538,-8.5455,-8.5491,-8.5537,-8.56,-8.5616,-8.5682,-8.5754,-8.5744,-8.5831,-8.5871,-8.5951,-8.5978,-8.6044,-8.601,-8.6043,-8.6052,-8.606,-8.607,-8.5835,-8.6055,-8.6054,-8.6054,-8.6053,-8.6053,0,-8.5487,-8.5515,-8.5584,-8.5654,-8.5713,-8.5681,-8.5732,-8.5783,-8.5861,-8.5902,-8.5961,-8.605,-8.6119,-8.6139,-8.6205,-8.6254,-8.6242,-8.6272,-8.6268,-8.6274,-8.6097,-8.6071,-8.6282,-8.6282,-8.6282,-8.6281,-8.6281,-8.6281,-8.5608,-8.572,-8.5725,-8.5853,-8.5878,-8.5966,-8.5998,-8.604,-8.6073,-8.6175,-8.6234,-8.6247,-8.628,-8.6349,-8.641,-8.6414,-8.644,-8.6477,-8.6475,-8.6309,-8.6286,-8.6264,-8.6239,-8.6483,-8.6483,-8.6646,-8.6648,-8.6649]}]]